SCATSAT 1 (41790 NORAD) Tracking and Keplerian Element Data

This shows tracking and keplerian element data for the satellite.

Feedback or suggestion? Click here.




ElementValue
Catalog41790
NameSCATSAT 1
Epoch Orbit11679
Epoch Day344.79338951
Epoch Year2018
RAAN29.163
Inclination98.2372
Eccentricity0.001699
Argument of Perigee269.8536
Mean Anonmoly90.0712
Mean Motion14.50883172
Decay Rate1.3E-07
L11 41790U 16059H 18344.79338951 .00000013 00000-0 14615-4 0 9992
L22 41790 98.2372 29.1630 0016990 269.8536 90.0712 14.50883172116791

Live tracking and technical data element details for SCATSAT 1 (NORAD 41790). SCATSAT 1 can be tracked NOW for your location showing map with azimuth and elevation plus other details from your city location.

Track the satellite on the map from your city or location and see movement details for azimuth, elevation, latitude, longitude, range, height, and movement on the map or in text.







IsCatalogInMostPopularTable: catalog: 41790, numindb: 125
Update: records affected: 1



GetName: 41790 SCATSAT 1

Hit Count: updated at: Thu, 13 Dec 2018 04:36:41 GMT